This is the latest recevied weather packets stored in our database for station/object KU9TRY. If no packets are shown the sender has not sent any weather packets the latest 10 day(s).
| Time | Temp. | Humidity | Pressure | Rain* | Wind** | Luminosity | Snow |
|---|---|---|---|---|---|---|---|
| 1787767717 | 29.44° C | 53% | 1016.5 hPa | 0 mm | - | 315 W/m² | - |
| 1787767418 | 28.89° C | 58% | 1016.6 hPa | 0 mm | - | 317 W/m² | - |
| 1787767116 | 28.89° C | 66% | 1016.7 hPa | 0 mm | - | 317 W/m² | - |
| 1787766815 | 28.89° C | 64% | 1016.6 hPa | 0 mm | - | 292 W/m² | - |
| 1787766514 | 28.89° C | 63% | 1016.7 hPa | 0 mm | - | 275 W/m² | - |
| 1787766214 | 28.89° C | 65% | 1016.7 hPa | 0 mm | - | 287 W/m² | - |
| 1787765910 | 28.89° C | 63% | 1017 hPa | 0 mm | - | 271 W/m² | - |
| 1787765606 | 29.44° C | 62% | 1016.7 hPa | 0 mm | - | 244 W/m² | - |
| 1787765301 | 29.44° C | 63% | 1017 hPa | 0 mm | - | 255 W/m² | - |
| 1787765000 | 30° C | 60% | 1017 hPa | 0 mm | - | 265 W/m² | - |
| 1787764696 | 30.56° C | 57% | 1017 hPa | 0 mm | - | 289 W/m² | - |
| 1787764396 | 30.56° C | 46% | 1017.2 hPa | 0 mm | - | 334 W/m² | - |
| 1787764092 | 30.56° C | 47% | 1017.4 hPa | 0 mm | - | 428 W/m² | - |
| 1787763788 | 30.56° C | 47% | 1017.4 hPa | 0 mm | - | 703 W/m² | - |
| 1787763483 | 30.56° C | 50% | 1017.6 hPa | 0 mm | - | 739 W/m² | - |
| 1787763183 | 30° C | 49% | 1017.8 hPa | 0 mm | - | 436 W/m² | - |
| 1787762878 | 30.56° C | 50% | 1017.6 hPa | 0 mm | - | 340 W/m² | - |
| 1787762573 | 30.56° C | 49% | 1017.7 hPa | 0 mm | - | 343 W/m² | - |
| 1787762269 | 30.56° C | 49% | 1017.6 hPa | 0 mm | - | 592 W/m² | - |
| 1787761964 | 30.56° C | 50% | 1017.7 hPa | 0 mm | - | 494 W/m² | - |
| 1787761659 | 30.56° C | 52% | 1017.5 hPa | 0 mm | - | 716 W/m² | - |
| 1787761354 | 30° C | 52% | 1017.4 hPa | 0 mm | - | 769 W/m² | - |
| 1787761053 | 30° C | 56% | 1017.5 hPa | 0 mm | - | 814 W/m² | - |
| 1787760752 | 30° C | 54% | 1017.7 hPa | 0 mm | - | 694 W/m² | - |
| 1787760452 | 30° C | 56% | 1017.5 hPa | 0 mm | - | 913 W/m² | - |
* Rain latest hour (hover to see other rain measurements)
** Current wind speed in m/s (hover to see current wind gust speed)